Weather reports worldwide

Advertisment
Capo Bellavista, Italy (16550): temperature & dewpoint: 13.11.2019 18:00:00 - 19.11.2019 18:00:00 (CET)Capo Bellavista, Italy (16550): wind speed: 13.11.2019 18:00:00 - 19.11.2019 18:00:00 (CET)Capo Bellavista, Italy (16550): wind direction: 13.11.2019 18:00:00 - 19.11.2019 18:00:00 (CET)Capo Bellavista, Italy (16550): reduced air pressure: 13.11.2019 18:00:00 - 19.11.2019 18:00:00 (CET)Capo Bellavista, Italy (16550): visibility: 13.11.2019 18:00:00 - 19.11.2019 18:00:00 (CET)Capo Bellavista, Italy (16550): sunshine duration: 13.11.2019 18:00:00 - 19.11.2019 18:00:00 (CET)
Date & Time tt [°C] td [°C] ff [km/h] ff [kn] dd ppp [hPa] vv [km] sd [min]
19.11.2019 18:00:00 13,2 11,2 15 8 W 1011,1 20 -
19.11.2019 17:00:00 13,4 11,4 18 10 ENE 1010,8 25 0
19.11.2019 16:00:00 13,8 11,1 29 16 ENE 1010,4 30 6
19.11.2019 15:00:00 14,0 10,9 21 11 ENE 1010,1 30 0
19.11.2019 14:00:00 14,8 14,2 28 15 E 1009,9 30 0
19.11.2019 13:00:00 14,8 8,8 5 3 NE 1010,2 30 12
19.11.2019 12:00:00 15,2 10,0 11 6 ESE 1010,5 30 24
19.11.2019 11:00:00 14,2 10,0 4 2 WNW 1010,3 30 0
19.11.2019 10:00:00 13,8 11,4 5 3 W 1009,8 30 0
19.11.2019 09:00:00 12,8 11,4 13 7 W 1009,4 30 0
19.11.2019 08:00:00 12,2 10,1 15 8 W 1008,8 30 0
19.11.2019 07:00:00 13,4 12,6 22 12 SSW 1008,3 20 0
19.11.2019 06:00:00 14,0 10,4 26 14 SW 1007,8 20 -
19.11.2019 05:00:00 14,0 10,6 28 15 SW 1007,8 20 -
19.11.2019 04:00:00 13,8 10,4 29 16 SSW 1007,8 20 -
19.11.2019 03:00:00 13,6 11,5 28 15 SW 1007,6 20 -
19.11.2019 02:00:00 13,6 11,7 26 14 SW 1007,7 20 -
19.11.2019 01:00:00 13,8 12,0 28 15 SW 1007,8 20 -
19.11.2019 00:00:00 13,8 12,2 29 16 SSW 1007,8 20 -
18.11.2019 23:00:00 13,6 12,0 26 14 SW 1007,8 15 -
18.11.2019 22:00:00 13,8 8,0 18 10 SSW 1008,0 20 -
18.11.2019 21:00:00 13,8 8,0 22 12 WSW 1008,2 20 -
18.11.2019 20:00:00 14,0 8,0 22 12 WSW 1008,1 20 -
18.11.2019 19:00:00 14,0 6,8 28 15 SW 1008,1 20 -
18.11.2019 18:00:00 14,8 6,1 28 15 SW 1009,0 20 -
18.11.2019 17:00:00 52,0 18,1 41 22 SSW 1006,0 30 0
18.11.2019 16:00:00 15,8 6,0 48 26 SSW 1008,1 30 0
18.11.2019 15:00:00 16,2 4,6 50 27 SSW 1008,7 30 60
18.11.2019 14:00:00 16,2 4,3 52 28 SSW 1008,8 20 60
18.11.2019 13:00:00 16,0 6,2 57 31 SSW 1009,4 30 60
18.11.2019 12:00:00 16,0 5,3 50 27 SSW 1010,3 30 60
18.11.2019 11:00:00 13,2 9,7 13 7 SW 1011,4 30 0
18.11.2019 10:00:00 11,8 9,7 22 12 WSW 1011,2 20 0
18.11.2019 09:00:00 12,4 7,2 18 10 SW 1011,0 30 12
18.11.2019 08:00:00 12,0 6,7 24 13 SW 1011,0 30 6
18.11.2019 07:00:00 11,6 6,3 24 13 SW 1011,0 30 -
18.11.2019 06:00:00 11,2 7,9 22 12 SW 1011,0 30 -
18.11.2019 05:00:00 11,2 6,7 16 9 WSW 1011,0 30 -
18.11.2019 04:00:00 11,2 7,5 11 6 W 1011,0 20 -
18.11.2019 03:00:00 11,8 8,2 21 11 SW 1011,0 30 -
18.11.2019 02:00:00 11,6 7,1 24 13 SW 1011,0 30 -
18.11.2019 01:00:00 12,0 6,7 16 9 SW 1011,0 30 -
18.11.2019 00:00:00 12,0 4,5 16 9 WSW 1011,0 30 -
17.11.2019 23:00:00 12,4 6,8 22 12 SSW 1011,0 30 -
17.11.2019 22:00:00 12,6 5,3 22 12 SW 1010,7 30 -
17.11.2019 21:00:00 12,8 2,7 16 9 W 1010,0 30 -
17.11.2019 20:00:00 13,0 1,3 9 5 SSW 1009,9 30 -
17.11.2019 19:00:00 13,0 0,2 24 13 W 1009,9 30 -
17.11.2019 18:00:00 13,2 -0,1 35 19 W 1009,5 30 0
17.11.2019 17:00:00 14,8 0,6 21 11 WNW 1008,2 30 36
17.11.2019 16:00:00 16,0 0,2 11 6 N 1007,5 30 60
17.11.2019 15:00:00 15,8 0,5 16 9 WNW 1006,6 30 60
17.11.2019 14:00:00 16,0 -0,4 31 17 W 1005,8 30 60
17.11.2019 13:00:00 15,2 -0,5 26 14 W 1005,7 30 42
17.11.2019 12:00:00 14,0 0,6 35 19 W 1005,8 30 0
17.11.2019 11:00:00 13,2 1,7 26 14 WNW 1004,4 25 0
17.11.2019 10:00:00 12,8 1,6 31 17 NW 1003,9 20 24
17.11.2019 09:00:00 12,0 3,2 22 12 NW 1002,8 20 0
17.11.2019 08:00:00 11,2 4,4 28 15 NW 1000,8 20 0
17.11.2019 07:00:00 10,0 4,8 26 14 NNW 998,9 20 -
17.11.2019 06:00:00 10,2 9,4 24 13 NW 998,0 20 -
17.11.2019 05:00:00 10,8 8,5 13 7 W 997,9 20 -
17.11.2019 04:00:00 11,2 9,3 15 8 W 998,1 20 -
17.11.2019 03:00:00 11,0 10,2 18 10 SW 998,8 20 -
17.11.2019 02:00:00 11,0 10,2 13 7 WSW 998,8 20 -
17.11.2019 01:00:00 11,0 8,2 13 7 SW 999,0 20 -
17.11.2019 00:00:00 10,6 9,0 8 4 W 999,1 20 -
16.11.2019 23:00:00 11,2 9,8 22 12 NNW 999,2 20 -
16.11.2019 22:00:00 10,8 9,2 26 14 N 1000,7 16 -
16.11.2019 21:00:00 11,2 9,1 50 27 NNE 1000,6 20 -
16.11.2019 20:00:00 11,0 10,2 57 31 NNE 1001,0 20 -
16.11.2019 19:00:00 10,0 9,2 65 35 NE 1001,9 20 -
16.11.2019 18:00:00 11,0 9,9 29 16 NW 1002,5 8 -
16.11.2019 17:00:00 10,0 7,8 18 10 NNW 1002,8 20 0
16.11.2019 16:00:00 9,4 7,2 26 14 NNW 1004,2 20 0
16.11.2019 15:00:00 9,6 9,0 22 12 N 1006,0 10 0
16.11.2019 14:00:00 9,4 8,6 18 10 NW 1008,0 8 0
16.11.2019 13:00:00 9,8 9,5 22 12 WNW 1008,5 8 0
16.11.2019 12:00:00 10,4 10,4 21 11 NW 1009,0 8 0
16.11.2019 11:00:00 12,0 8,7 21 11 NW 1009,6 20 0
16.11.2019 10:00:00 11,8 5,0 24 13 NW 1009,9 20 0
16.11.2019 09:00:00 12,2 3,9 16 9 WNW 1009,8 30 0
16.11.2019 08:00:00 12,2 3,9 15 8 NW 1009,0 25 0
16.11.2019 07:00:00 12,8 4,6 9 5 WNW 1008,8 20 0
16.11.2019 06:00:00 12,8 4,2 4 2 SW 1008,4 20 -
16.11.2019 05:00:00 12,6 4,8 5 3 W 1008,1 20 -
16.11.2019 04:00:00 12,8 3,7 9 5 SSE 1007,8 20 -
16.11.2019 03:00:00 13,2 6,9 13 7 W 1007,6 20 -
16.11.2019 02:00:00 13,0 5,4 21 11 SW 1006,9 20 -
16.11.2019 01:00:00 13,0 4,9 22 12 SW 1006,8 20 -
16.11.2019 00:00:00 13,0 6,2 24 13 SW 1006,6 20 -
15.11.2019 23:00:00 13,0 6,2 22 12 SW 1006,0 20 -
15.11.2019 22:00:00 13,2 4,2 16 9 WSW 1005,5 20 -
15.11.2019 21:00:00 13,2 5,2 16 9 W 1004,8 20 -
15.11.2019 20:00:00 13,6 6,1 18 10 SW 1004,6 20 -
15.11.2019 19:00:00 13,8 5,9 28 15 SW 1003,8 20 -
15.11.2019 18:00:00 13,8 3,6 11 6 SSW 1002,9 20 -
15.11.2019 17:00:00 14,6 6,9 24 13 WNW 1002,3 30 12
15.11.2019 16:00:00 15,8 4,3 35 19 W 1001,7 20 60
15.11.2019 15:00:00 16,0 9,0 28 15 WSW 1001,7 30 36
15.11.2019 14:00:00 15,2 8,1 26 14 WSW 1001,7 30 6
15.11.2019 13:00:00 15,4 7,5 22 12 W 1001,8 20 12
15.11.2019 12:00:00 15,8 6,2 39 21 WSW 1001,8 30 12
15.11.2019 11:00:00 15,0 6,1 37 20 WSW 1001,9 30 6
15.11.2019 10:00:00 15,0 8,7 41 22 WSW 1001,8 20 0
15.11.2019 09:00:00 14,8 8,3 24 13 SW 1001,6 30 0
15.11.2019 08:00:00 14,4 9,0 11 6 WSW 1001,4 30 0
15.11.2019 07:00:00 15,0 9,6 16 9 SW 1001,3 20 0
15.11.2019 06:00:00 13,2 8,7 15 8 SW 1002,7 20 -
15.11.2019 05:00:00 13,4 9,2 16 9 SW 1003,0 20 -
15.11.2019 04:00:00 13,6 9,7 18 10 SW 1003,1 20 -
15.11.2019 03:00:00 13,6 10,0 21 11 WSW 1003,2 20 -
15.11.2019 02:00:00 13,6 11,0 22 12 SW 1003,3 20 -
15.11.2019 01:00:00 13,8 10,6 24 13 SW 1003,3 20 -
15.11.2019 00:00:00 13,8 10,2 24 13 SW 1003,5 20 -
14.11.2019 23:00:00 14,0 10,0 26 14 WSW 1003,6 20 -
14.11.2019 22:00:00 14,0 8,8 28 15 SW 1003,9 20 -
14.11.2019 21:00:00 14,0 7,8 28 15 SW 1004,1 20 -
14.11.2019 20:00:00 14,2 7,0 31 17 WSW 1004,3 20 -
14.11.2019 19:00:00 14,2 6,3 21 11 SW 1004,4 20 -
14.11.2019 18:00:00 15,0 7,5 26 14 SW 1004,3 20 -
14.11.2019 17:00:00 15,2 5,4 22 12 S 1004,4 30 0
14.11.2019 16:00:00 17,0 5,6 24 13 S 1004,5 30 48
14.11.2019 15:00:00 17,2 7,0 11 6 SSE 1004,9 30 60
14.11.2019 14:00:00 17,8 8,7 15 8 SE 1005,0 30 60
14.11.2019 13:00:00 18,2 7,3 9 5 SE 1006,2 30 60
14.11.2019 12:00:00 17,2 6,7 9 5 S 1006,6 30 60
14.11.2019 11:00:00 14,2 3,9 9 5 SE 1007,0 30 60
14.11.2019 10:00:00 14,0 -0,4 5 3 WSW 1006,7 30 60
14.11.2019 09:00:00 12,0 -0,8 21 11 WNW 1006,7 30 48
14.11.2019 08:00:00 11,4 -1,0 26 14 NW 1005,9 30 0
14.11.2019 07:00:00 11,0 2,3 29 16 NW 1005,6 20 -
14.11.2019 06:00:00 11,0 4,9 28 15 NW 1005,6 20 -
14.11.2019 05:00:00 11,8 4,8 22 12 NW 1005,4 20 -
14.11.2019 04:00:00 11,8 5,0 28 15 NW 1005,4 10 -
14.11.2019 03:00:00 12,0 5,2 18 10 WNW 1005,4 20 -
14.11.2019 02:00:00 13,0 4,9 13 7 NW 1005,6 20 -
14.11.2019 01:00:00 12,0 4,2 13 7 NNW 1005,8 20 -
14.11.2019 00:00:00 12,8 4,7 16 9 NW 1005,8 20 -
13.11.2019 23:00:00 13,2 7,9 15 8 WNW 1005,8 20 -
13.11.2019 22:00:00 13,0 5,9 11 6 NW 1005,8 20 -
13.11.2019 21:00:00 13,2 3,0 21 11 NNW 1005,4 20 -
13.11.2019 20:00:00 13,2 6,1 16 9 NW 1005,1 20 -
13.11.2019 19:00:00 15,0 4,1 15 8 NW 1004,6 20 -
13.11.2019 18:00:00 15,4 3,5 11 6 W 1003,7 20 -

tt = temperature
td = dewpoint
ff = wind speed
dd = wind direction
ppp = reduced air pressure
vv = visibility
sd = sunshine duration

Next stations